FD206 YBDV-YBAS

Flight info

Callsign FD206
Flight time 1h 31m
Altitude 20000
Route DCT ASUBO W344 AS DCT
Aircraft PC12/L-SDFGRWY/S

Departure

Time 2026-04-27 04:52
Airport Birdsville Airport (YBDV)

Arrival

Time 2026-04-27 06:23
Airport Alice Springs Airport (YBAS)
Time Latitude Longitude Altitude Speed Heading
2026-04-27 04:36 -25.89836 139.35047 157 ft 0 kts 57°
2026-04-27 04:47 -25.89833 139.35049 160 ft 0 kts 27°
2026-04-27 04:47 -25.89812 139.35028 157 ft 12 kts 312°
2026-04-27 04:47 -25.89811 139.34956 156 ft 1 kts 236°
2026-04-27 04:48 -25.89798 139.34961 156 ft 12 kts 49°
2026-04-27 04:48 -25.89778 139.34986 155 ft 0 kts 51°
2026-04-27 04:49 -25.89772 139.34979 156 ft 6 kts 237°
2026-04-27 04:49 -25.89788 139.34966 157 ft 0 kts 218°
2026-04-27 04:49 -25.89804 139.34932 157 ft 15 kts 270°
2026-04-27 04:49 -25.89651 139.34816 155 ft 40 kts 329°
2026-04-27 04:50 -25.89363 139.34621 157 ft 54 kts 333°
2026-04-27 04:50 -25.89018 139.34393 156 ft 61 kts 330°
2026-04-27 04:50 -25.88661 139.34157 155 ft 44 kts 329°
2026-04-27 04:50 -25.88535 139.34059 155 ft 10 kts 79°
2026-04-27 04:51 -25.88650 139.34150 155 ft 47 kts 149°
2026-04-27 04:51 -25.89121 139.34446 173 ft 104 kts 146°
2026-04-27 04:51 -25.89801 139.34886 426 ft 128 kts 144°
2026-04-27 04:51 -25.90629 139.35518 751 ft 156 kts 131°
2026-04-27 04:52 -25.90997 139.36655 1267 ft 169 kts 78°
2026-04-27 04:52 -25.90108 139.37570 1377 ft 199 kts 20°
2026-04-27 04:52 -25.88670 139.37573 1347 ft 218 kts 345°
2026-04-27 04:52 -25.87418 139.36595 1295 ft 227 kts 308°
2026-04-27 04:53 -25.86924 139.34968 1368 ft 222 kts 268°
2026-04-27 04:53 -25.87459 139.33505 2036 ft 196 kts 223°
2026-04-27 04:53 -25.88582 139.33003 3038 ft 163 kts 174°
2026-04-27 04:53 -25.89414 139.33571 4073 ft 138 kts 117°
2026-04-27 04:54 -25.89396 139.34590 4845 ft 142 kts 61°
2026-04-27 04:54 -25.88532 139.35117 5590 ft 152 kts
2026-04-27 04:54 -25.87592 139.34576 6325 ft 161 kts 306°
2026-04-27 04:54 -25.87418 139.33395 7056 ft 159 kts 249°
2026-04-27 04:55 -25.88151 139.32580 7799 ft 152 kts 193°
2026-04-27 04:55 -25.89123 139.32802 8570 ft 146 kts 137°
2026-04-27 04:55 -25.89462 139.33836 9334 ft 152 kts 83°
2026-04-27 04:55 -25.88842 139.34782 10089 ft 162 kts 29°
2026-04-27 04:56 -25.87721 139.34781 10750 ft 172 kts 331°
2026-04-27 04:56 -25.87043 139.33736 11468 ft 170 kts 285°
2026-04-27 04:56 -25.86707 139.32465 12194 ft 173 kts 282°
2026-04-27 04:56 -25.86353 139.31179 12946 ft 176 kts 284°
2026-04-27 04:57 -25.85932 139.29885 13703 ft 180 kts 285°
2026-04-27 04:57 -25.85481 139.28580 14376 ft 182 kts 285°
2026-04-27 04:57 -25.85023 139.27261 14934 ft 185 kts 284°
2026-04-27 04:57 -25.84566 139.25942 15505 ft 186 kts 284°
2026-04-27 04:58 -25.84094 139.24578 16086 ft 187 kts 284°
2026-04-27 04:58 -25.83624 139.23222 16650 ft 189 kts 283°
2026-04-27 04:58 -25.83157 139.21872 17211 ft 191 kts 283°
2026-04-27 04:58 -25.82677 139.20489 17769 ft 193 kts 282°
2026-04-27 04:59 -25.82193 139.19094 18321 ft 195 kts 282°
2026-04-27 04:59 -25.81705 139.17684 18803 ft 196 kts 282°
2026-04-27 04:59 -25.81214 139.16272 19288 ft 196 kts 282°
2026-04-27 04:59 -25.80722 139.14854 19771 ft 198 kts 282°
2026-04-27 05:00 -25.80221 139.13399 20081 ft 209 kts 282°
2026-04-27 05:00 -25.79675 139.11804 20089 ft 231 kts 283°
2026-04-27 05:00 -25.79075 139.10085 20088 ft 245 kts 284°
2026-04-27 05:00 -25.78445 139.08293 20084 ft 252 kts 284°
2026-04-27 05:01 -25.77806 139.06465 20082 ft 256 kts 284°
2026-04-27 05:01 -25.77163 139.04617 20080 ft 258 kts 284°
2026-04-27 05:01 -25.76525 139.02782 20082 ft 258 kts 284°
2026-04-27 05:01 -25.75875 139.00920 20082 ft 259 kts 284°
2026-04-27 05:02 -25.75227 138.99059 20077 ft 259 kts 284°
2026-04-27 05:02 -25.74577 138.97197 20078 ft 259 kts 284°
2026-04-27 05:02 -25.73278 138.93471 20079 ft 259 kts 284°
2026-04-27 05:03 -25.72627 138.91607 20076 ft 259 kts 284°
2026-04-27 05:03 -25.71976 138.89745 20077 ft 259 kts 284°
2026-04-27 05:03 -25.71325 138.87882 20077 ft 259 kts 284°
2026-04-27 05:03 -25.70674 138.86019 20066 ft 259 kts 284°
2026-04-27 05:04 -25.70023 138.84160 20066 ft 258 kts 284°
2026-04-27 05:04 -25.69374 138.82304 20067 ft 258 kts 284°
2026-04-27 05:04 -25.68724 138.80447 20066 ft 258 kts 284°
2026-04-27 05:04 -25.68073 138.78589 20066 ft 258 kts 284°
2026-04-27 05:05 -25.67423 138.76735 20068 ft 258 kts 284°
2026-04-27 05:05 -25.66773 138.74880 20068 ft 258 kts 284°
2026-04-27 05:05 -25.66122 138.73025 20050 ft 259 kts 284°
2026-04-27 05:05 -25.65466 138.71152 19947 ft 261 kts 284°
2026-04-27 05:06 -25.64807 138.69280 19944 ft 260 kts 284°
2026-04-27 05:06 -25.64153 138.67420 19944 ft 259 kts 284°
2026-04-27 05:06 -25.63510 138.65589 19943 ft 258 kts 284°
2026-04-27 05:06 -25.62857 138.63733 19936 ft 257 kts 284°
2026-04-27 05:07 -25.62209 138.61891 19933 ft 257 kts 284°
2026-04-27 05:07 -25.61561 138.60049 19932 ft 256 kts 284°
2026-04-27 05:07 -25.60913 138.58207 19932 ft 256 kts 284°
2026-04-27 05:07 -25.60264 138.56364 19932 ft 258 kts 284°
2026-04-27 05:08 -25.59611 138.54513 19930 ft 257 kts 284°
2026-04-27 05:08 -25.58960 138.52667 19930 ft 256 kts 284°
2026-04-27 05:08 -25.58307 138.50812 19931 ft 260 kts 284°
2026-04-27 05:08 -25.57646 138.48937 19935 ft 263 kts 284°
2026-04-27 05:09 -25.56978 138.47049 19934 ft 264 kts 284°
2026-04-27 05:09 -25.56317 138.45181 19935 ft 263 kts 284°
2026-04-27 05:09 -25.55649 138.43292 19928 ft 264 kts 284°
2026-04-27 05:09 -25.54981 138.41401 19930 ft 264 kts 284°
2026-04-27 05:10 -25.54312 138.39507 19929 ft 264 kts 284°
2026-04-27 05:10 -25.53641 138.37614 19932 ft 264 kts 284°
2026-04-27 05:10 -25.52969 138.35717 19932 ft 264 kts 284°
2026-04-27 05:10 -25.52298 138.33821 19932 ft 264 kts 284°
2026-04-27 05:11 -25.51625 138.31924 19934 ft 264 kts 284°
2026-04-27 05:11 -25.50953 138.30028 19934 ft 264 kts 284°
2026-04-27 05:11 -25.50281 138.28135 19934 ft 264 kts 284°
2026-04-27 05:11 -25.49608 138.26239 19932 ft 264 kts 284°
2026-04-27 05:12 -25.48936 138.24345 19931 ft 264 kts 284°
2026-04-27 05:12 -25.48262 138.22451 19926 ft 264 kts 284°
2026-04-27 05:12 -25.47590 138.20558 19920 ft 264 kts 285°
2026-04-27 05:12 -25.46916 138.18664 19922 ft 264 kts 285°
2026-04-27 05:13 -25.46244 138.16775 19922 ft 264 kts 285°
2026-04-27 05:13 -25.45571 138.14885 19922 ft 264 kts 285°
2026-04-27 05:13 -25.45125 138.13633 19921 ft 264 kts 285°
2026-04-27 05:13 -25.44453 138.11744 19922 ft 264 kts 285°
2026-04-27 05:14 -25.43780 138.09855 19925 ft 264 kts 285°
2026-04-27 05:14 -25.43106 138.07966 19925 ft 264 kts 285°
2026-04-27 05:14 -25.42433 138.06079 19925 ft 264 kts 285°
2026-04-27 05:14 -25.41539 138.03576 19925 ft 264 kts 285°
2026-04-27 05:15 -25.41084 138.02301 19924 ft 264 kts 285°
2026-04-27 05:15 -25.40409 138.00412 19923 ft 263 kts 285°
2026-04-27 05:15 -25.39736 137.98529 19922 ft 263 kts 285°
2026-04-27 05:15 -25.39052 137.96649 19922 ft 264 kts 286°
2026-04-27 05:16 -25.38347 137.94776 19919 ft 264 kts 287°
2026-04-27 05:16 -25.37653 137.92925 19914 ft 264 kts 286°
2026-04-27 05:16 -25.36957 137.91049 19919 ft 264 kts 286°
2026-04-27 05:16 -25.36260 137.89173 19917 ft 264 kts 286°
2026-04-27 05:17 -25.35562 137.87299 19917 ft 264 kts 286°
2026-04-27 05:17 -25.34863 137.85423 19919 ft 264 kts 286°
2026-04-27 05:17 -25.34163 137.83546 19919 ft 264 kts 286°
2026-04-27 05:17 -25.33464 137.81672 19917 ft 264 kts 286°
2026-04-27 05:18 -25.32764 137.79796 19916 ft 263 kts 287°
2026-04-27 05:18 -25.32065 137.77922 19919 ft 263 kts 287°
2026-04-27 05:18 -25.31366 137.76050 19922 ft 263 kts 287°
2026-04-27 05:18 -25.30667 137.74180 19916 ft 263 kts 287°
2026-04-27 05:19 -25.29968 137.72307 19915 ft 263 kts 287°
2026-04-27 05:19 -25.29267 137.70435 19917 ft 263 kts 287°
2026-04-27 05:19 -25.28568 137.68566 19918 ft 263 kts 287°
2026-04-27 05:19 -25.27868 137.66694 19918 ft 263 kts 287°
2026-04-27 05:20 -25.27168 137.64825 19916 ft 263 kts 287°
2026-04-27 05:20 -25.26467 137.62955 19921 ft 263 kts 287°
2026-04-27 05:20 -25.25766 137.61083 19920 ft 263 kts 287°
2026-04-27 05:20 -25.25066 137.59215 19907 ft 263 kts 287°
2026-04-27 05:21 -25.24366 137.57348 19920 ft 263 kts 287°
2026-04-27 05:21 -25.23675 137.55508 19920 ft 263 kts 287°
2026-04-27 05:21 -25.22974 137.53643 19921 ft 263 kts 287°
2026-04-27 05:21 -25.22274 137.51777 19921 ft 263 kts 287°
2026-04-27 05:22 -25.21573 137.49912 19921 ft 263 kts 287°
2026-04-27 05:22 -25.20871 137.48045 19921 ft 263 kts 287°
2026-04-27 05:22 -25.20170 137.46181 19921 ft 263 kts 287°
2026-04-27 05:22 -25.19468 137.44316 19921 ft 263 kts 287°
2026-04-27 05:23 -25.18765 137.42448 19919 ft 263 kts 287°
2026-04-27 05:23 -25.18063 137.40583 19919 ft 263 kts 287°
2026-04-27 05:23 -25.17359 137.38716 19919 ft 263 kts 287°
2026-04-27 05:23 -25.16658 137.36855 19917 ft 262 kts 287°
2026-04-27 05:24 -25.15954 137.34990 19920 ft 262 kts 287°
2026-04-27 05:24 -25.15262 137.33154 19919 ft 263 kts 287°
2026-04-27 05:24 -25.14560 137.31295 19919 ft 262 kts 287°
2026-04-27 05:24 -25.13858 137.29436 19919 ft 263 kts 287°
2026-04-27 05:25 -25.13154 137.27572 19919 ft 263 kts 287°
2026-04-27 05:25 -25.12451 137.25712 19919 ft 263 kts 287°
2026-04-27 05:25 -25.11748 137.23852 19919 ft 263 kts 288°
2026-04-27 05:25 -25.11044 137.21992 19919 ft 263 kts 288°
2026-04-27 05:26 -25.10339 137.20130 19919 ft 263 kts 287°
2026-04-27 05:26 -25.09634 137.18268 19919 ft 263 kts 288°
2026-04-27 05:26 -25.08929 137.16405 19919 ft 263 kts 288°
2026-04-27 05:26 -25.08224 137.14546 19919 ft 263 kts 288°
2026-04-27 05:27 -25.07518 137.12686 19918 ft 263 kts 288°
2026-04-27 05:27 -25.06821 137.10845 19918 ft 263 kts 288°
2026-04-27 05:27 -25.06114 137.08984 19919 ft 263 kts 288°
2026-04-27 05:27 -25.05407 137.07121 19919 ft 263 kts 288°
2026-04-27 05:28 -25.04701 137.05262 19918 ft 263 kts 288°
2026-04-27 05:28 -25.03994 137.03403 19918 ft 263 kts 288°
2026-04-27 05:28 -25.03289 137.01547 19918 ft 263 kts 288°
2026-04-27 05:28 -25.02583 136.99691 19919 ft 263 kts 288°
2026-04-27 05:29 -25.01875 136.97831 19918 ft 263 kts 288°
2026-04-27 05:29 -25.01169 136.95976 19917 ft 263 kts 288°
2026-04-27 05:29 -25.00460 136.94113 19917 ft 263 kts 288°
2026-04-27 05:29 -24.99752 136.92255 19917 ft 263 kts 288°
2026-04-27 05:30 -24.99044 136.90397 19916 ft 263 kts 288°
2026-04-27 05:30 -24.98336 136.88539 19917 ft 263 kts 288°
2026-04-27 05:30 -24.97627 136.86682 19916 ft 263 kts 288°
2026-04-27 05:30 -24.96918 136.84825 19916 ft 263 kts 288°
2026-04-27 05:31 -24.96217 136.82988 19916 ft 263 kts 288°
2026-04-27 05:31 -24.95508 136.81132 19916 ft 263 kts 288°
2026-04-27 05:31 -24.94798 136.79275 19915 ft 263 kts 288°
2026-04-27 05:31 -24.94089 136.77420 19916 ft 263 kts 288°
2026-04-27 05:32 -24.93379 136.75564 19910 ft 263 kts 288°
2026-04-27 05:32 -24.92669 136.73707 19909 ft 263 kts 288°
2026-04-27 05:32 -24.91957 136.71851 19909 ft 263 kts 288°
2026-04-27 05:32 -24.91246 136.69993 19909 ft 263 kts 288°
2026-04-27 05:33 -24.90535 136.68137 19911 ft 263 kts 288°
2026-04-27 05:33 -24.89824 136.66283 19911 ft 263 kts 288°
2026-04-27 05:33 -24.89114 136.64431 19911 ft 263 kts 288°
2026-04-27 05:33 -24.88403 136.62576 19911 ft 263 kts 288°
2026-04-27 05:34 -24.87691 136.60722 19914 ft 263 kts 288°
2026-04-27 05:34 -24.86978 136.58866 19913 ft 263 kts 288°
2026-04-27 05:34 -24.86265 136.57009 19913 ft 263 kts 288°
2026-04-27 05:34 -24.85553 136.55156 19912 ft 263 kts 288°
2026-04-27 05:35 -24.84840 136.53302 19914 ft 263 kts 288°
2026-04-27 05:35 -24.84128 136.51450 19914 ft 263 kts 288°
2026-04-27 05:35 -24.83416 136.49597 19914 ft 263 kts 288°
2026-04-27 05:35 -24.82706 136.47742 19914 ft 263 kts 288°
2026-04-27 05:36 -24.82005 136.45914 19913 ft 263 kts 288°
2026-04-27 05:36 -24.81296 136.44060 19913 ft 263 kts 288°
2026-04-27 05:36 -24.80577 136.42181 19913 ft 263 kts 288°
2026-04-27 05:36 -24.79878 136.40352 19913 ft 263 kts 288°
2026-04-27 05:37 -24.79170 136.38496 19915 ft 263 kts 288°
2026-04-27 05:37 -24.78463 136.36641 19908 ft 263 kts 288°
2026-04-27 05:37 -24.77757 136.34787 19909 ft 263 kts 288°
2026-04-27 05:37 -24.77050 136.32931 19909 ft 263 kts 288°
2026-04-27 05:38 -24.76344 136.31075 19912 ft 263 kts 288°
2026-04-27 05:38 -24.75639 136.29221 19911 ft 263 kts 288°
2026-04-27 05:38 -24.74936 136.27367 19911 ft 263 kts 288°
2026-04-27 05:38 -24.74233 136.25514 19911 ft 263 kts 288°
2026-04-27 05:39 -24.73531 136.23660 19916 ft 263 kts 288°
2026-04-27 05:39 -24.72829 136.21805 19916 ft 262 kts 288°
2026-04-27 05:39 -24.72129 136.19954 19916 ft 262 kts 288°
2026-04-27 05:39 -24.71429 136.18101 19916 ft 262 kts 288°
2026-04-27 05:40 -24.70729 136.16246 19910 ft 262 kts 288°
2026-04-27 05:40 -24.70030 136.14390 19911 ft 263 kts 288°
2026-04-27 05:40 -24.69331 136.12535 19911 ft 263 kts 288°
2026-04-27 05:40 -24.68633 136.10678 19911 ft 263 kts 288°
2026-04-27 05:41 -24.67935 136.08819 19912 ft 263 kts 288°
2026-04-27 05:41 -24.67238 136.06960 19912 ft 263 kts 288°
2026-04-27 05:41 -24.66541 136.05102 19912 ft 263 kts 288°
2026-04-27 05:41 -24.65845 136.03242 19912 ft 263 kts 288°
2026-04-27 05:42 -24.65149 136.01382 19912 ft 263 kts 288°
2026-04-27 05:42 -24.64456 135.99526 19915 ft 263 kts 288°
2026-04-27 05:42 -24.63771 135.97693 19915 ft 263 kts 288°
2026-04-27 05:42 -24.63079 135.95837 19914 ft 262 kts 288°
2026-04-27 05:43 -24.62387 135.93980 19913 ft 263 kts 288°
2026-04-27 05:43 -24.61695 135.92120 19914 ft 263 kts 288°
2026-04-27 05:43 -24.61004 135.90259 19914 ft 263 kts 288°
2026-04-27 05:43 -24.60312 135.88397 19914 ft 263 kts 288°
2026-04-27 05:44 -24.59623 135.86538 19912 ft 263 kts 288°
2026-04-27 05:44 -24.58932 135.84675 19912 ft 263 kts 288°
2026-04-27 05:44 -24.58244 135.82814 19912 ft 263 kts 288°
2026-04-27 05:44 -24.57556 135.80951 19912 ft 263 kts 288°
2026-04-27 05:45 -24.56867 135.79086 19912 ft 263 kts 288°
2026-04-27 05:45 -24.56180 135.77222 19907 ft 263 kts 288°
2026-04-27 05:45 -24.55494 135.75359 19911 ft 263 kts 288°
2026-04-27 05:45 -24.54815 135.73513 19912 ft 264 kts 288°
2026-04-27 05:46 -24.54128 135.71645 19914 ft 264 kts 288°
2026-04-27 05:46 -24.53443 135.69779 19914 ft 263 kts 288°
2026-04-27 05:46 -24.52750 135.67890 19914 ft 263 kts 288°
2026-04-27 05:46 -24.52074 135.66046 19913 ft 263 kts 288°
2026-04-27 05:47 -24.51390 135.64179 19913 ft 263 kts 288°
2026-04-27 05:47 -24.50708 135.62313 19913 ft 263 kts 288°
2026-04-27 05:47 -24.50025 135.60443 19914 ft 264 kts 288°
2026-04-27 05:47 -24.49344 135.58577 19914 ft 264 kts 288°
2026-04-27 05:48 -24.48662 135.56706 19912 ft 264 kts 288°
2026-04-27 05:48 -24.47982 135.54838 19912 ft 264 kts 288°
2026-04-27 05:48 -24.47302 135.52968 19912 ft 264 kts 288°
2026-04-27 05:48 -24.46621 135.51093 19912 ft 264 kts 288°
2026-04-27 05:49 -24.45943 135.49223 19910 ft 264 kts 288°
2026-04-27 05:49 -24.45264 135.47350 19910 ft 264 kts 288°
2026-04-27 05:49 -24.44587 135.45479 19913 ft 264 kts 288°
2026-04-27 05:49 -24.43909 135.43605 19912 ft 264 kts 288°
2026-04-27 05:50 -24.43242 135.41759 19912 ft 264 kts 288°
2026-04-27 05:50 -24.42566 135.39886 19912 ft 264 kts 288°
2026-04-27 05:50 -24.41891 135.38015 19911 ft 264 kts 288°
2026-04-27 05:50 -24.41216 135.36142 19914 ft 264 kts 288°
2026-04-27 05:51 -24.40542 135.34268 19914 ft 264 kts 288°
2026-04-27 05:51 -24.39868 135.32393 19914 ft 264 kts 288°
2026-04-27 05:51 -24.39194 135.30517 19914 ft 264 kts 288°
2026-04-27 05:51 -24.38522 135.28642 19914 ft 264 kts 288°
2026-04-27 05:52 -24.37849 135.26764 19912 ft 264 kts 288°
2026-04-27 05:52 -24.37177 135.24887 19912 ft 265 kts 288°
2026-04-27 05:52 -24.36506 135.23009 19912 ft 265 kts 288°
2026-04-27 05:52 -24.35835 135.21131 19912 ft 264 kts 288°
2026-04-27 05:53 -24.35165 135.19251 19914 ft 264 kts 287°
2026-04-27 05:53 -24.34496 135.17376 19915 ft 264 kts 287°
2026-04-27 05:53 -24.33826 135.15494 19914 ft 264 kts 287°
2026-04-27 05:53 -24.32967 135.13706 19913 ft 268 kts 301°
2026-04-27 05:54 -24.31850 135.12067 19910 ft 269 kts 304°
2026-04-27 05:54 -24.30708 135.10444 19911 ft 268 kts 302°
2026-04-27 05:54 -24.29658 135.08756 19912 ft 268 kts 299°
2026-04-27 05:54 -24.28647 135.07039 19913 ft 268 kts 299°
2026-04-27 05:55 -24.27614 135.05332 19915 ft 269 kts 300°
2026-04-27 05:55 -24.26565 135.03634 19916 ft 269 kts 300°
2026-04-27 05:55 -24.25521 135.01936 19916 ft 269 kts 300°
2026-04-27 05:55 -24.24496 135.00259 19914 ft 268 kts 300°
2026-04-27 05:56 -24.23457 134.98561 19917 ft 268 kts 300°
2026-04-27 05:56 -24.22413 134.96859 19917 ft 269 kts 300°
2026-04-27 05:56 -24.21371 134.95161 19917 ft 269 kts 300°
2026-04-27 05:56 -24.20330 134.93463 19917 ft 269 kts 300°
2026-04-27 05:57 -24.19287 134.91762 19914 ft 269 kts 300°
2026-04-27 05:57 -24.18244 134.90063 19914 ft 269 kts 300°
2026-04-27 05:57 -24.17202 134.88366 19914 ft 269 kts 300°
2026-04-27 05:57 -24.16160 134.86670 19913 ft 268 kts 300°
2026-04-27 05:58 -24.15119 134.84975 19913 ft 268 kts 300°
2026-04-27 05:58 -24.14078 134.83283 19913 ft 268 kts 300°
2026-04-27 05:58 -24.13038 134.81591 19913 ft 268 kts 300°
2026-04-27 05:58 -24.11998 134.79899 19913 ft 268 kts 301°
2026-04-27 05:59 -24.10957 134.78208 19913 ft 268 kts 301°
2026-04-27 05:59 -24.09916 134.76517 19913 ft 268 kts 300°
2026-04-27 05:59 -24.08874 134.74824 19913 ft 268 kts 300°
2026-04-27 05:59 -24.07833 134.73134 19913 ft 268 kts 300°
2026-04-27 06:00 -24.06103 134.70326 19917 ft 269 kts 300°
2026-04-27 06:00 -24.04715 134.68075 19921 ft 268 kts 300°
2026-04-27 06:00 -24.03674 134.66386 19920 ft 268 kts 300°
2026-04-27 06:01 -24.02633 134.64699 19920 ft 267 kts 301°
2026-04-27 06:01 -24.01593 134.63014 19920 ft 267 kts 301°
2026-04-27 06:01 -24.00890 134.61875 19920 ft 267 kts 301°
2026-04-27 06:01 -23.99516 134.59651 19919 ft 266 kts 301°
2026-04-27 06:02 -23.98827 134.58537 19919 ft 266 kts 301°
2026-04-27 06:02 -23.97791 134.56859 19918 ft 266 kts 301°
2026-04-27 06:02 -23.96753 134.55179 19918 ft 266 kts 301°
2026-04-27 06:02 -23.95711 134.53494 19919 ft 266 kts 301°
2026-04-27 06:03 -23.94673 134.51817 19918 ft 266 kts 301°
2026-04-27 06:03 -23.93636 134.50141 19919 ft 266 kts 301°
2026-04-27 06:03 -23.92600 134.48465 19919 ft 266 kts 301°
2026-04-27 06:03 -23.91561 134.46788 19919 ft 266 kts 301°
2026-04-27 06:04 -23.90525 134.45116 19924 ft 266 kts 301°
2026-04-27 06:04 -23.89487 134.43440 19923 ft 266 kts 301°
2026-04-27 06:04 -23.88447 134.41763 19920 ft 266 kts 301°
2026-04-27 06:04 -23.87411 134.40092 19920 ft 265 kts 301°
2026-04-27 06:05 -23.86377 134.38424 19920 ft 265 kts 301°
2026-04-27 06:05 -23.85343 134.36758 19922 ft 265 kts 301°
2026-04-27 06:05 -23.84309 134.35091 19922 ft 265 kts 301°
2026-04-27 06:05 -23.83275 134.33426 19921 ft 265 kts 301°
2026-04-27 06:06 -23.82243 134.31764 19921 ft 265 kts 301°
2026-04-27 06:06 -23.81213 134.30107 19920 ft 262 kts 301°
2026-04-27 06:06 -23.80185 134.28452 19919 ft 264 kts 301°
2026-04-27 06:06 -23.79142 134.26771 19727 ft 271 kts 301°
2026-04-27 06:07 -23.78069 134.25044 19399 ft 277 kts 301°
2026-04-27 06:07 -23.76979 134.23295 19039 ft 280 kts 301°
2026-04-27 06:07 -23.75884 134.21538 18670 ft 280 kts 301°
2026-04-27 06:07 -23.74789 134.19779 18292 ft 279 kts 301°
2026-04-27 06:08 -23.73714 134.18051 17901 ft 278 kts 301°
2026-04-27 06:08 -23.72627 134.16307 17530 ft 277 kts 301°
2026-04-27 06:08 -23.71544 134.14568 17161 ft 277 kts 301°
2026-04-27 06:08 -23.70462 134.12832 16803 ft 276 kts 301°
2026-04-27 06:09 -23.69378 134.11094 16434 ft 277 kts 301°
2026-04-27 06:09 -23.68292 134.09354 16074 ft 277 kts 302°
2026-04-27 06:09 -23.67206 134.07614 15706 ft 278 kts 302°
2026-04-27 06:09 -23.66115 134.05865 15364 ft 279 kts 302°
2026-04-27 06:10 -23.65019 134.04111 14998 ft 280 kts 302°
2026-04-27 06:10 -23.63916 134.02343 14488 ft 283 kts 302°
2026-04-27 06:10 -23.62814 134.00582 14183 ft 281 kts 303°
2026-04-27 06:10 -23.61723 133.98836 13794 ft 281 kts 303°
2026-04-27 06:11 -23.60624 133.97078 13296 ft 283 kts 303°
2026-04-27 06:11 -23.59507 133.95292 12573 ft 286 kts 303°
2026-04-27 06:11 -23.58379 133.93490 11865 ft 289 kts 303°
2026-04-27 06:11 -23.57240 133.91670 10945 ft 290 kts 303°
2026-04-27 06:12 -23.56112 133.89869 10046 ft 286 kts 303°
2026-04-27 06:12 -23.55052 133.88071 8901 ft 277 kts 295°
2026-04-27 06:12 -23.54520 133.86088 7771 ft 271 kts 276°
2026-04-27 06:12 -23.54538 133.84059 6672 ft 266 kts 260°
2026-04-27 06:13 -23.54870 133.82079 5566 ft 263 kts 256°
2026-04-27 06:13 -23.55312 133.80191 4958 ft 247 kts 250°
2026-04-27 06:13 -23.55836 133.78448 5070 ft 239 kts 247°
2026-04-27 06:13 -23.56451 133.76782 5184 ft 237 kts 243°
2026-04-27 06:14 -23.57165 133.75170 5218 ft 238 kts 239°
2026-04-27 06:14 -23.57984 133.73597 5209 ft 238 kts 234°
2026-04-27 06:14 -23.58895 133.72084 5217 ft 239 kts 232°
2026-04-27 06:14 -23.59896 133.70636 5222 ft 239 kts 228°
2026-04-27 06:15 -23.60968 133.69284 5220 ft 239 kts 224°
2026-04-27 06:15 -23.62124 133.68002 5220 ft 237 kts 220°
2026-04-27 06:15 -23.63350 133.66818 5221 ft 230 kts 216°
2026-04-27 06:15 -23.64671 133.66047 5206 ft 206 kts 189°
2026-04-27 06:16 -23.66018 133.65972 5215 ft 186 kts 169°
2026-04-27 06:16 -23.67173 133.66382 5211 ft 170 kts 150°
2026-04-27 06:16 -23.68099 133.67162 5216 ft 169 kts 131°
2026-04-27 06:16 -23.68749 133.68206 5221 ft 163 kts 119°
2026-04-27 06:17 -23.69298 133.69230 5239 ft 152 kts 119°
2026-04-27 06:17 -23.69834 133.70211 5237 ft 149 kts 119°
2026-04-27 06:17 -23.70352 133.71164 5239 ft 143 kts 119°
2026-04-27 06:17 -23.70863 133.72113 5110 ft 149 kts 118°
2026-04-27 06:18 -23.71384 133.73087 4913 ft 145 kts 118°
2026-04-27 06:18 -23.71887 133.74024 4720 ft 141 kts 118°
2026-04-27 06:18 -23.72353 133.74894 4543 ft 128 kts 118°
2026-04-27 06:18 -23.72804 133.75737 4366 ft 126 kts 116°
2026-04-27 06:19 -23.73233 133.76540 4214 ft 125 kts 117°
2026-04-27 06:19 -23.73679 133.77375 4056 ft 129 kts 118°
2026-04-27 06:19 -23.74123 133.78200 3882 ft 122 kts 118°
2026-04-27 06:19 -23.74551 133.79000 3774 ft 122 kts 117°
2026-04-27 06:20 -23.74975 133.79787 3778 ft 120 kts 117°
2026-04-27 06:20 -23.75406 133.80577 3779 ft 123 kts 118°
2026-04-27 06:20 -23.75854 133.81391 3792 ft 126 kts 118°
2026-04-27 06:20 -23.76311 133.82206 3801 ft 126 kts 119°
2026-04-27 06:21 -23.76766 133.83006 3799 ft 124 kts 120°
2026-04-27 06:21 -23.77229 133.83814 3705 ft 125 kts 120°
2026-04-27 06:21 -23.77673 133.84604 3487 ft 122 kts 119°
2026-04-27 06:21 -23.78089 133.85370 3512 ft 118 kts 115°
2026-04-27 06:22 -23.78440 133.86115 3259 ft 95 kts 114°
2026-04-27 06:22 -23.78749 133.86741 2746 ft 89 kts 116°
2026-04-27 06:22 -23.79059 133.87278 2386 ft 87 kts 117°
2026-04-27 06:22 -23.79408 133.87927 2209 ft 106 kts 113°
2026-04-27 06:23 -23.79719 133.88577 2015 ft 90 kts 114°
2026-04-27 06:23 -23.80012 133.89158 1845 ft 87 kts 117°
2026-04-27 06:23 -23.80304 133.89704 1786 ft 75 kts 115°
2026-04-27 06:23 -23.80494 133.90068 1779 ft 17 kts 118°
2026-04-27 06:24 -23.80581 133.90228 1779 ft 36 kts 122°
2026-04-27 06:24 -23.80544 133.90350 1779 ft 29 kts 30°
2026-04-27 06:24 -23.80392 133.90448 1778 ft 12 kts 20°
2026-04-27 06:24 -23.80371 133.90404 1778 ft 1 kts 208°
2026-04-27 06:25 -23.80374 133.90403 1778 ft 0 kts 208°